This is the latest recevied weather packets stored in our database for station/object N1UNH. If no packets are shown the sender has not sent any weather packets the latest 10 day(s).
| Time | Temp. | Humidity | Pressure | Rain* | Wind** | Luminosity | Snow |
|---|---|---|---|---|---|---|---|
| 1777758397 | 8.89° C | 93% | 1015.4 hPa | 3.05 mm | - | 26 W/m² | - |
| 1777758095 | 8.89° C | 93% | 1015.7 hPa | 4.83 mm | - | 29 W/m² | - |
| 1777757791 | 8.89° C | 92% | 1015.7 hPa | 4.83 mm | - | 30 W/m² | - |
| 1777757488 | 8.89° C | 92% | 1015.7 hPa | 3.05 mm | - | 30 W/m² | - |
| 1777757187 | 8.89° C | 92% | 1015.6 hPa | 4.32 mm | - | 31 W/m² | - |
| 1777756885 | 9.44° C | 92% | 1015.8 hPa | 4.83 mm | - | 29 W/m² | - |
| 1777756580 | 8.89° C | 92% | 1015.4 hPa | 1.78 mm | - | 32 W/m² | - |
| 1777756278 | 9.44° C | 91% | 1015.4 hPa | 1.27 mm | - | 38 W/m² | - |
| 1777755975 | 9.44° C | 91% | 1015.4 hPa | 1.27 mm | - | 47 W/m² | - |
| 1777755672 | 9.44° C | 91% | 1015.6 hPa | 1.27 mm | - | 61 W/m² | - |
| 1777755368 | 9.44° C | 91% | 1015.7 hPa | 0 mm | - | 65 W/m² | - |
| 1777755066 | 9.44° C | 91% | 1015.3 hPa | 0 mm | - | 77 W/m² | - |
| 1777754762 | 9.44° C | 91% | 1015.4 hPa | 0 mm | - | 93 W/m² | - |
| 1777754460 | 9.44° C | 91% | 1015.5 hPa | 0 mm | - | 110 W/m² | - |
| 1777754156 | 9.44° C | 91% | 1015.5 hPa | 0 mm | - | 134 W/m² | - |
| 1777753854 | 9.44° C | 91% | 1015.5 hPa | 3.05 mm | - | 109 W/m² | - |
| 1777753550 | 9.44° C | 91% | 1015.5 hPa | 3.05 mm | - | 99 W/m² | - |
| 1777753248 | 9.44° C | 91% | 1015.7 hPa | 1.27 mm | - | 159 W/m² | - |
| 1777752944 | 9.44° C | 91% | 1015.6 hPa | 0 mm | - | 52 W/m² | - |
| 1777752640 | 9.44° C | 89% | 1015.6 hPa | 0 mm | - | 40 W/m² | - |
| 1777752336 | 9.44° C | 88% | 1015.6 hPa | 0 mm | - | 55 W/m² | - |
| 1777752035 | 9.44° C | 87% | 1015.8 hPa | 0 mm | - | 64 W/m² | - |
| 1777751732 | 10° C | 86% | 1015.6 hPa | 0 mm | - | 76 W/m² | - |
| 1777751427 | 10° C | 85% | 1015.7 hPa | 0 mm | - | 40 W/m² | - |
| 1777751124 | 10.56° C | 86% | 1015.5 hPa | 0 mm | - | 54 W/m² | - |
* Rain latest hour (hover to see other rain measurements)
** Current wind speed in m/s (hover to see current wind gust speed)